sat.trackr.live / text

‹ back to catalog

STARLINK-35783

NORAD 66286 · 2025-247X

PAYLOAD ACTIVE UNKNOWN

§ Identity

Operator
Country
US
Launch date
2025-10-31
Launch site
AFWTR
Launch vehicle
Mass (kg)
RCS (m²)

Purposes: comms

External: N2YO · Heavens-Above · Gunter

§ Orbital elements

Epoch: 2026-05-25T04:06:12.722112Z

Period
94.10 min
Inclination
53.1577°
Eccentricity
0.0001274
Mean motion
15.30233547 rev/d
Perigee alt
474.2 km
Apogee alt
476.0 km
Semi-major
6,853.3 km
B*
5.1790e-4
RAAN
196.1668°
Arg perigee
107.9281°
Mean anomaly
252.1859°
Rev number
3,274

§ Raw data

STARLINK-357831 66286U 25247X   26145.17098058  .00015026  00000+0  51790-3 0  99922 66286  53.1577 196.1668 0001274 107.9281 252.1859 15.30233547 32748

JSON: /api/v1/satellites/66286 · /tle

For live sub-satellite position, see the globe view (requires WebGL).

§ Visibility from observer

Set your observer location to see the next 7 days of passes ≥ 10°. The values pass through the URL so the page stays shareable.

No JS? Fill the form by hand. The geolocation button needs JavaScript.